Volver al catálogo

STARLINK-36184

ActivoComunicacionesVLEO
NORAD 67021·PAYLOAD·🇺🇸 United States

Lanzado Dec 10, 2025 desde Vandenberg Space Force Base

Loading…

Próximos Pases (próximas 24 horas)

TLE

ActualizadoSource: CelesTrak SupGP

Época: Sep 14, 2026, 23:20 UTC

1 67021C 25293U   26257.97270833  .00005604  00000+0  46974-3 0  2572
2 67021  70.0022 337.3046 0003692 267.6533 252.9161 14.98317253    17

Sigue STARLINK-36184 en tiempo real con AllMySat

Download on the App Store